[[{"header":{"parameterUnit":"m.s-1","parameterCategory":1,"la1":30.2991,"la2":30.254,"lo1":-89.0895,"lo2":-89.0444,"dy":0.0017,"dx":0.0017,"nx":28,"ny":28,"refTime":"2024-12-13T03:00:00:Z","depth":0,"parameterNumber":2,"parameterNumberName":"U-component_of_WINDS"},"data":[0,0,0,0,0,0,0,0,0,0,0,0,0,0,0,0,0,0,0,0,0,0,0,0,0,0,0,0,0,0,0,0,0,0,0,0,0,0,0,0,0,0,0,0,0,0,0,0,0,0,0,0,0,0,0,0,0,0,-6.1212,-6.1212,0,-6.1198,-6.1198,-6.1198,-6.1036,-6.1032,-6.1028,-6.1024,-6.1011,-6.1014,-6.1018,0,0,0,0,0,0,0,0,0,0,0,0,0,-6.1101,-6.1104,-6.1212,-6.1212,-6.1212,-6.1198,-6.1198,-6.1197,-6.1037,-6.1032,-6.1027,-6.1022,-6.101,-6.1014,-6.1018,0,0,0,0,0,0,0,0,0,0,0,0,0,-6.1124,-6.1105,-6.1212,-6.113,-6.1122,-6.1198,-6.1198,-6.1197,-6.1038,-6.1032,-6.1026,-6.102,-6.1008,-6.1013,-6.1018,-6.1172,0,0,-6.1034,-6.1036,0,0,0,0,0,0,0,0,-6.1123,-6.1128,-6.1142,-6.1136,-6.1127,-6.1112,-6.1153,-6.1189,-6.1039,-6.107,-6.1024,-6.1017,-6.105,-6.1051,-6.1062,-6.1171,-6.1171,-6.1035,-6.1038,-6.104,-6.1041,0,0,0,0,0,0,0,-6.1122,-6.1128,-6.1206,-6.1142,-6.1134,-6.1094,-6.1091,-6.1159,-6.1094,-6.1067,-6.1055,-6.1056,-6.1044,-6.1057,-6.106,-6.1171,-6.1034,-6.1039,-6.1042,-6.1044,-6.1405,-6.1411,0,0,0,0,0,0,-6.1131,-6.1128,-6.1207,-6.1206,-6.111,-6.1101,-6.1097,-6.1123,-6.1093,-6.1082,-6.1061,-6.1048,-6.1051,-6.1054,-6.1059,-6.1235,-6.104,-6.1045,-6.1048,-6.1398,-6.1406,-6.1413,0,0,0,0,0,0,-6.113,-6.114,-6.1207,-6.1164,-6.1169,-6.1109,-6.114,-6.1126,-6.1139,-6.1088,-6.1076,-6.1086,-6.1047,-6.1052,-6.1145,-6.1233,-6.1047,-6.1052,-6.139,-6.1401,-6.1409,-6.159,0,0,0,0,0,0,-6.1127,-6.114,-6.1198,-6.1166,-6.1172,-6.1293,-6.1146,-6.113,-6.1148,-6.1131,-6.1108,-6.1099,-6.1042,-6.1138,-6.115,-6.1236,-6.1056,-6.1382,-6.1395,-6.1406,-6.1576,-6.1605,-6.163,0,0,0,0,0,-6.1124,-6.125,-6.1201,-6.1212,-6.1243,-6.1299,-6.1302,-6.1234,-6.1156,-6.1213,-6.1181,-6.11,-6.1222,-6.1149,-6.1161,-6.125,-6.1376,-6.1391,-6.1405,-6.1564,-6.1599,-6.1629,0,0,0,0,0,0,-6.1293,-6.1244,-6.119,-6.1309,-6.131,-6.1271,-6.1341,-6.1274,-6.1296,-6.128,-6.1195,-6.1191,-6.1297,-6.1283,-6.1203,-6.1397,-6.1285,-6.1303,-6.1402,-6.1435,-6.1461,-6.1461,-6.106,0,0,0,0,0,-6.1345,-6.1394,-6.1348,-6.1458,-6.1461,-6.1402,-6.1424,-6.1372,-6.1368,-6.1368,-6.1342,-6.1342,-6.138,-6.1407,-6.1439,-6.1575,-6.1566,-6.1642,-6.1669,-6.1691,-6.1707,-6.1775,-6.1808,-6.1461,-6.1461,-6.1461,0,0,-6.1451,-6.143,-6.1466,-6.1492,-6.1486,-6.1538,-6.1403,-6.1465,-6.1503,-6.1377,-6.1462,-6.1444,-6.1439,-6.1553,-6.1602,-6.1545,-6.1801,-6.171,-6.1728,-6.1731,-6.1794,-6.1827,-6.1856,-6.1471,-6.1469,-6.1467,0,0,-6.1671,-6.1661,-6.175,-6.1747,-6.174,-6.17,-6.1722,-6.1694,-6.1677,-6.1761,-6.1668,-6.1713,-6.1781,-6.178,-6.1789,-6.2011,-6.1936,-6.2024,-6.2163,-6.2231,-6.2258,-6.2282,-6.2359,-6.2388,-6.204,-6.2041,-6.2041,0,-6.1803,-6.1879,-6.1805,-6.1873,-6.1887,-6.1776,-6.1865,-6.1866,-6.187,-6.1882,-6.1818,-6.1901,-6.189,-6.2001,-6.2056,-6.2067,-6.2089,-6.2025,-6.226,-6.2284,-6.2305,-6.2377,-6.2407,-6.2051,-6.205,-6.2049,-6.2048,0,-6.2042,-6.2096,-6.2169,-6.2175,-6.2197,-6.2277,-6.2215,-6.2246,-6.2193,-6.216,-6.2248,-6.2231,-6.2257,-6.2281,-6.223,-6.2386,-6.235,-6.2275,-6.216,-6.2349,-6.2416,-6.2443,-6.2066,-6.2062,-6.2059,-6.2057,0,0,-6.2365,-6.233,-6.2358,-6.2359,-6.2343,-6.2384,-6.2458,-6.2484,-6.2512,-6.2519,-6.2578,-6.2639,-6.2569,-6.258,-6.2528,-6.2589,-6.2763,-6.2505,-6.2504,-6.2552,-6.2932,-6.2987,-6.302,-6.2715,-6.272,-6.2724,-6.2932,0,-6.2575,-6.2698,-6.2635,-6.2766,-6.2815,-6.2711,-6.2775,-6.2773,-6.2745,-6.2782,-6.2751,-6.2795,-6.27,-6.2706,-6.2761,-6.273,-6.2838,-6.2715,-6.2768,-6.2771,-6.277,-6.3055,-6.3113,-6.3309,-6.2958,-6.2962,-6.2965,0,-6.2835,-6.2853,-6.2989,-6.2964,-6.2982,-6.3041,-6.3059,-6.3097,-6.3092,-6.3067,-6.308,-6.3014,-6.3085,-6.2974,-6.307,-6.2988,-6.3007,-6.2995,-6.3001,-6.3001,-6.2877,-6.306,-6.337,-6.3399,-6.3006,-6.3003,-6.3,0,-6.3054,-6.3113,-6.3201,-6.3206,-6.3179,-6.3223,-6.3214,-6.3204,-6.3223,-6.324,-6.3252,-6.3278,-6.3291,-6.3312,-6.3255,-6.318,-6.3359,-6.3243,-6.3339,-6.3341,-6.3378,-6.3376,-6.3693,-6.3396,-6.3396,-6.3395,-6.3395,0,-6.3293,-6.338,-6.3299,-6.3353,-6.3448,-6.3375,-6.3471,-6.3451,-6.3443,-6.3491,-6.3405,-6.3452,-6.3375,-6.3415,-6.3372,-6.3457,-6.3465,-6.3446,-6.3432,-6.3452,-6.3454,-6.346,-6.3444,-6.3403,-6.3401,-6.34,-6.3399,0,-6.3552,-6.3501,-6.3591,-6.3559,-6.3553,-6.3624,-6.3597,-6.3646,-6.3613,-6.3675,-6.3686,-6.3634,-6.3677,-6.3623,-6.3661,-6.3631,-6.3747,-6.3715,-6.3748,-6.3738,-6.3835,-6.3826,-6.4165,-6.4205,-6.3886,-6.3889,-6.3892,0,-6.3706,-6.377,-6.3745,-6.3771,-6.3768,-6.3812,-6.3831,-6.3763,-6.3787,-6.3787,-6.3836,-6.3872,-6.3896,-6.397,-6.3935,-6.3964,-6.393,-6.4047,-6.3933,-6.3951,-6.3928,-6.3924,-6.3929,-6.4069,-6.4073,-6.4076,-6.4079,0,-6.3983,-6.3955,-6.3986,-6.401,-6.4035,-6.4051,-6.4059,-6.4086,-6.4015,-6.4046,-6.4089,-6.4108,-6.4147,-6.4183,-6.4203,-6.4193,-6.4125,-6.4116,-6.4138,-6.4157,-6.4172,-6.4163,-6.3808,-6.4107,-6.4104,-6.4102,-6.4101,-6.4099,-6.4192,-6.4244,-6.4234,-6.4272,-6.4272,-6.4282,-6.4326,-6.4299,-6.4333,-6.4359,-6.4317,-6.4371,-6.4365,-6.4384,-6.4384,-6.4424,-6.4373,-6.4408,-6.4416,-6.4425,-6.4438,-6.4169,-6.4428,-6.4427,-6.4426,-6.4426,-6.4425,0,-6.4462,-6.4452,-6.4487,-6.4502,-6.4532,-6.4466,-6.4472,-6.4501,-6.4549,-6.455,-6.4576,-6.4625,-6.466,-6.463,-6.4658,-6.4697,-6.4666,-6.4707,-6.4701,-6.47,-6.4483,-6.4459,-6.4731,-6.4731,-6.4731,-6.4731,-6.4731,-6.4731,-6.4606,-6.469,-6.4661,-6.4744,-6.4733,-6.4784,-6.4793,-6.4802,-6.4802,-6.4861,-6.4889,-6.487,-6.4858,-6.4885,-6.4914,-6.4904,-6.4918,-6.4969,-6.4948,-6.4746,-6.4715,-6.4687,-6.4663,-6.4974,-6.4974,-6.5161,-6.5162,-6.5164]},{"header":{"parameterUnit":"m.s-1","parameterCategory":1,"la1":30.2991,"la2":30.254,"lo1":-89.0895,"lo2":-89.0444,"dy":0.0017,"dx":0.0017,"nx":28,"ny":28,"refTime":"2024-12-13T03:00:00:Z","depth":0,"parameterNumber":3,"parameterNumberName":"V-component_of_WINDS"},"data":[0,0,0,0,0,0,0,0,0,0,0,0,0,0,0,0,0,0,0,0,0,0,0,0,0,0,0,0,0,0,0,0,0,0,0,0,0,0,0,0,0,0,0,0,0,0,0,0,0,0,0,0,0,0,0,0,0,0,-0.5216,-0.5216,0,-0.5196,-0.5196,-0.5196,-0.5201,-0.5201,-0.5202,-0.5202,-0.5182,-0.5181,-0.518,0,0,0,0,0,0,0,0,0,0,0,0,0,-0.5258,-0.5258,-0.5216,-0.5216,-0.5216,-0.5196,-0.5196,-0.5195,-0.5201,-0.5201,-0.5202,-0.5202,-0.5182,-0.5181,-0.518,0,0,0,0,0,0,0,0,0,0,0,0,0,-0.5239,-0.5257,-0.5216,-0.5216,-0.5216,-0.5196,-0.5196,-0.5195,-0.5201,-0.5202,-0.5202,-0.5203,-0.5182,-0.5181,-0.518,-0.5159,0,0,-0.5176,-0.5175,0,0,0,0,0,0,0,0,-0.524,-0.5238,-0.5217,-0.5216,-0.5216,-0.5202,-0.5203,-0.5183,-0.5201,-0.5207,-0.5202,-0.5203,-0.5188,-0.5186,-0.5181,-0.5158,-0.5157,-0.5175,-0.5175,-0.5174,-0.5174,0,0,0,0,0,0,0,-0.5242,-0.5239,-0.5208,-0.5216,-0.5216,-0.5217,-0.5215,-0.5199,-0.5194,-0.5206,-0.5207,-0.5204,-0.5188,-0.5182,-0.5181,-0.5157,-0.5175,-0.5174,-0.5173,-0.5173,-0.5112,-0.5111,0,0,0,0,0,0,-0.5243,-0.524,-0.5209,-0.5208,-0.523,-0.5215,-0.5213,-0.5206,-0.5194,-0.5193,-0.5204,-0.5204,-0.5184,-0.5182,-0.518,-0.5152,-0.5174,-0.5173,-0.5172,-0.5113,-0.5112,-0.5111,0,0,0,0,0,0,-0.5244,-0.5241,-0.521,-0.5224,-0.522,-0.5214,-0.5206,-0.5205,-0.5199,-0.5192,-0.5191,-0.5199,-0.5185,-0.5182,-0.5163,-0.5152,-0.5172,-0.5171,-0.5114,-0.5112,-0.5111,-0.5098,0,0,0,0,0,0,-0.5245,-0.5241,-0.5233,-0.5224,-0.5219,-0.5194,-0.5205,-0.5204,-0.5197,-0.5198,-0.5188,-0.5187,-0.5185,-0.5165,-0.5162,-0.515,-0.517,-0.5115,-0.5113,-0.5112,-0.51,-0.5097,-0.5094,0,0,0,0,0,-0.5247,-0.5232,-0.5233,-0.5229,-0.521,-0.5193,-0.5191,-0.5189,-0.5196,-0.5188,-0.5183,-0.5187,-0.5154,-0.5163,-0.516,-0.5147,-0.5115,-0.5114,-0.5112,-0.5101,-0.5097,-0.5094,0,0,0,0,0,0,-0.5241,-0.523,-0.5232,-0.5213,-0.5204,-0.5194,-0.5184,-0.5186,-0.5175,-0.5177,-0.5175,-0.5173,-0.5153,-0.5149,-0.516,-0.5125,-0.5135,-0.5133,-0.5128,-0.5125,-0.5122,-0.5123,-0.5169,0,0,0,0,0,-0.5237,-0.5225,-0.5217,-0.5201,-0.5196,-0.5191,-0.5184,-0.5183,-0.5174,-0.517,-0.5164,-0.5154,-0.5141,-0.5133,-0.5121,-0.5099,-0.5096,-0.5089,-0.5086,-0.5084,-0.5081,-0.5066,-0.5062,-0.5105,-0.5105,-0.5105,0,0,-0.523,-0.5223,-0.5215,-0.5199,-0.5192,-0.5178,-0.5188,-0.5174,-0.5163,-0.5168,-0.5149,-0.5144,-0.5133,-0.5112,-0.5103,-0.5108,-0.5068,-0.5082,-0.508,-0.5078,-0.5064,-0.506,-0.5056,-0.5104,-0.5104,-0.5104,0,0,-0.521,-0.5204,-0.5188,-0.518,-0.5169,-0.5165,-0.5161,-0.5151,-0.5147,-0.5128,-0.5131,-0.5118,-0.5097,-0.5088,-0.5081,-0.5054,-0.5056,-0.505,-0.5035,-0.5021,-0.5017,-0.5014,-0.5002,-0.4998,-0.5047,-0.5047,-0.5047,0,-0.5202,-0.5182,-0.518,-0.5165,-0.5157,-0.5159,-0.5142,-0.5135,-0.5121,-0.5114,-0.512,-0.5091,-0.5085,-0.506,-0.5053,-0.5048,-0.5042,-0.5051,-0.5018,-0.5015,-0.5012,-0.5,-0.4996,-0.5047,-0.5047,-0.5047,-0.5047,0,-0.5172,-0.5158,-0.5147,-0.5131,-0.5121,-0.5106,-0.51,-0.5091,-0.509,-0.5085,-0.5065,-0.5056,-0.5041,-0.5035,-0.5036,-0.501,-0.5013,-0.5018,-0.5029,-0.5007,-0.4996,-0.4991,-0.5045,-0.5046,-0.5046,-0.5046,0,0,-0.5149,-0.513,-0.5126,-0.5117,-0.5104,-0.5092,-0.5076,-0.506,-0.5051,-0.504,-0.5025,-0.5005,-0.5009,-0.5001,-0.5,-0.4987,-0.4962,-0.4994,-0.4993,-0.4986,-0.493,-0.4924,-0.4919,-0.4964,-0.4963,-0.4963,-0.493,0,-0.5125,-0.5096,-0.5092,-0.5065,-0.5051,-0.5051,-0.5036,-0.5026,-0.502,-0.5006,-0.5,-0.4985,-0.4993,-0.4987,-0.4975,-0.4968,-0.4951,-0.497,-0.4948,-0.4947,-0.4949,-0.4914,-0.4909,-0.4879,-0.4926,-0.4925,-0.4925,0,-0.5095,-0.5081,-0.5052,-0.5038,-0.5031,-0.5018,-0.5002,-0.4989,-0.4976,-0.4972,-0.4962,-0.4961,-0.4942,-0.4954,-0.4926,-0.494,-0.493,-0.4925,-0.4924,-0.4921,-0.4934,-0.4908,-0.487,-0.4864,-0.4918,-0.4919,-0.4919,0,-0.5077,-0.5052,-0.5031,-0.5024,-0.5007,-0.4997,-0.499,-0.4977,-0.4967,-0.4952,-0.4945,-0.4929,-0.492,-0.4907,-0.4902,-0.4911,-0.4874,-0.4886,-0.4869,-0.4869,-0.486,-0.4861,-0.4818,-0.4857,-0.4857,-0.4857,-0.4857,0,-0.5051,-0.5033,-0.5023,-0.501,-0.4988,-0.4984,-0.4963,-0.4956,-0.4944,-0.4928,-0.4928,-0.4914,-0.4908,-0.4892,-0.4888,-0.4864,-0.4861,-0.4856,-0.4855,-0.4855,-0.4855,-0.4848,-0.4849,-0.4856,-0.4856,-0.4857,-0.4857,0,-0.5029,-0.5021,-0.4998,-0.4982,-0.4978,-0.4963,-0.4949,-0.4936,-0.4929,-0.4909,-0.4904,-0.4894,-0.4875,-0.4868,-0.4846,-0.4842,-0.4814,-0.4816,-0.4818,-0.4817,-0.48,-0.48,-0.4749,-0.4741,-0.4788,-0.4787,-0.4787,0,-0.5012,-0.4997,-0.498,-0.4969,-0.496,-0.4943,-0.4932,-0.4926,-0.4914,-0.4896,-0.4884,-0.4865,-0.4849,-0.4817,-0.4808,-0.4789,-0.4789,-0.4772,-0.4786,-0.4786,-0.4786,-0.4786,-0.4783,-0.4769,-0.4769,-0.4768,-0.4768,0,-0.4982,-0.4978,-0.4962,-0.4943,-0.4929,-0.4915,-0.49,-0.4891,-0.4883,-0.4869,-0.4849,-0.4836,-0.4811,-0.4791,-0.4771,-0.4763,-0.4763,-0.4764,-0.4758,-0.4758,-0.4758,-0.4755,-0.4808,-0.4765,-0.4765,-0.4765,-0.4765,-0.4766,-0.496,-0.4946,-0.493,-0.4911,-0.4899,-0.4885,-0.4871,-0.4861,-0.4844,-0.4822,-0.482,-0.4797,-0.4781,-0.4755,-0.4745,-0.4726,-0.4731,-0.4724,-0.4722,-0.4719,-0.4717,-0.4762,-0.4723,-0.4723,-0.4723,-0.4723,-0.4723,0,-0.4928,-0.4917,-0.49,-0.4878,-0.4863,-0.4864,-0.4847,-0.4834,-0.4813,-0.4798,-0.4782,-0.4756,-0.4736,-0.4723,-0.4702,-0.4689,-0.4689,-0.4684,-0.4684,-0.4681,-0.4715,-0.4721,-0.4684,-0.4684,-0.4684,-0.4684,-0.4684,-0.4684,-0.4909,-0.4885,-0.4878,-0.4847,-0.4836,-0.4813,-0.4803,-0.4789,-0.4776,-0.4748,-0.473,-0.4722,-0.4707,-0.4684,-0.4665,-0.4661,-0.4653,-0.4647,-0.4644,-0.4675,-0.4679,-0.4683,-0.4688,-0.4645,-0.4645,-0.4611,-0.461,-0.461]}]]